The Dalles, WA

6:26 PM PDT on August 24, 2019 (GMT -0700)
Columbia Gorge Regional-The Dalles

Weather History for KDLS - June, 2019

Change the Weather History Date:

Sunday, June 9, 2019

  Actual Average Record
Temperature  
Mean Temperature 65 °F -  
Max Temperature 86 °F 79 °F 100 °F (1955)
Min Temperature 44 °F 52 °F 44 °F (1950)
Growing Degree Days 15 (Base 50)    
Moisture  
Dew Point 42 °F    
Average Humidity 48    
Maximum Humidity 82    
Minimum Humidity 17    
Precipitation  
Precipitation 0.00 in - - ()
Sea Level Pressure  
Sea Level Pressure 30.28 in    
Wind  
Wind Speed 3 mph (West)    
Max Wind Speed 7 mph    
Max Gust Speed -    
Visibility 10 miles    
Events      
Averages and records for this station are not official NWS values.
T = Trace of Precipitation, MM = Missing Value Source: NWS Daily Summary

Daily Weather History Graph

Daily Weather History Graph

Search for Another Location

Airport or City:

Astronomy

Jun. 09, 2019 Rise Set
Actual Time 5:15 AM PDT 8:52 PM PDT
Civil Twilight 4:37 AM PDT 9:30 PM PDT
Nautical Twilight 3:47 AM PDT 10:20 PM PDT
Astronomical Twilight 2:40 AM PDT 11:28 PM PDT
Moon 12:11 PM PDT (6/9) 1:25 AM PDT (6/9)
Length of Visible Light 16h 52m
Length of Day
15h 36m
Waxing Crescent, 45% of the Moon is Illuminated
Jun 9
Waxing Crescent
Jun 9
First Quarter
Jun 17
Full
Jun 25
Last Quarter
Jul 2
New

Hourly Weather History & Observations

Time (PDT) Temp. Windchill Dew Point Humidity Pressure Visibility Wind Dir Wind Speed Gust Speed Precip Events Conditions
12:53 AM 55.0 °F - 42.1 °F 62% 30.35 in 10.0 mi SW 3.5 mph - N/A   Clear
1:53 AM 50.0 °F - 42.1 °F 74% 30.35 in 10.0 mi Calm Calm - N/A   Clear
2:53 AM 50.0 °F - 42.1 °F 74% 30.36 in 10.0 mi Calm Calm - N/A   Clear
3:53 AM 46.0 °F 43.9 °F 39.9 °F 79% 30.37 in 10.0 mi SSE 4.6 mph - N/A   Clear
4:53 AM 46.9 °F - 39.0 °F 74% 30.37 in 10.0 mi East 4.6 mph - N/A   Clear
5:53 AM 44.1 °F 40.8 °F 39.0 °F 82% 30.38 in 10.0 mi SE 5.8 mph - N/A   Clear
6:53 AM 50.0 °F - 42.1 °F 74% 30.39 in 10.0 mi Calm Calm - N/A   Clear
7:53 AM 54.0 °F - 43.0 °F 66% 30.39 in 10.0 mi NW 5.8 mph - N/A   Clear
8:53 AM 55.9 °F - 43.0 °F 62% 30.38 in 10.0 mi Calm Calm - N/A   Clear
9:53 AM 61.0 °F - 44.1 °F 54% 30.36 in 10.0 mi Variable 3.5 mph - N/A   Clear
10:53 AM 66.0 °F - 43.0 °F 43% 30.34 in 10.0 mi SSE 4.6 mph - N/A   Clear
11:53 AM 72.0 °F - 45.0 °F 38% 30.32 in 10.0 mi WSW 4.6 mph - N/A   Clear
12:53 PM 73.9 °F - 44.1 °F 34% 30.28 in 10.0 mi West 4.6 mph - N/A   Clear
1:53 PM 78.1 °F - 44.1 °F 30% 30.25 in 10.0 mi NW 5.8 mph - N/A   Clear
2:53 PM 82.0 °F - 43.0 °F 25% 30.23 in 10.0 mi NW 3.5 mph - N/A   Clear
3:53 PM 84.9 °F - 43.0 °F 23% 30.20 in 10.0 mi WNW 6.9 mph - N/A   Clear
4:53 PM 86.0 °F - 37.9 °F 18% 30.17 in 10.0 mi Calm Calm - N/A   Clear
5:53 PM 84.9 °F - 36.0 °F 17% 30.16 in 10.0 mi NW 3.5 mph - N/A   Clear
6:53 PM 82.9 °F - 39.0 °F 21% 30.14 in 10.0 mi NW 6.9 mph - N/A   Clear
7:53 PM 80.1 °F - 44.1 °F 28% 30.14 in 10.0 mi NNW 4.6 mph - N/A   Clear
8:53 PM 73.0 °F - 41.0 °F 31% 30.16 in 10.0 mi WNW 4.6 mph - N/A   Clear
9:53 PM 69.1 °F - 43.0 °F 39% 30.17 in 10.0 mi SSW 3.5 mph - N/A   Clear
10:53 PM 64.0 °F - 43.0 °F 46% 30.19 in 10.0 mi East 5.8 mph - N/A   Clear
11:53 PM 62.1 °F - 42.1 °F 48% 30.20 in 10.0 mi Calm Calm - N/A   Clear